Chester, CT

10:19 PM EST on December 11, 2019 (GMT -0500)
Chester

Weather History for KSNC - November, 2019

Change the Weather History Date:

Tuesday, November 12, 2019

  Actual Average (KHVN) Record (KHVN)
Temperature  
Mean Temperature 40 °F -  
Max Temperature 57 °F 49 °F 66 °F (1978)
Min Temperature 23 °F 35 °F 25 °F (2007)
Degree Days  
Heating Degree Days 25    
Moisture  
Dew Point 30 °F    
Average Humidity 69    
Maximum Humidity 100    
Minimum Humidity 34    
Precipitation  
Precipitation 0.00 in - - ()
Sea Level Pressure  
Sea Level Pressure 29.85 in    
Wind  
Wind Speed 9 mph ()    
Max Wind Speed 22 mph    
Max Gust Speed 33 mph    
Visibility 8.6 miles    
Events Rain , Snow    
Averages and records for this station are not official NWS values.
T = Trace of Precipitation, MM = Missing Value Source: Averaged Metar Reports

Daily Weather History Graph

Daily Weather History Graph

Search for Another Location

Airport or City:

Astronomy

Nov. 12, 2019 Rise Set
Actual Time 6:34 AM EST 4:33 PM EST
Civil Twilight 6:05 AM EST 5:02 PM EST
Nautical Twilight 5:31 AM EST 5:36 PM EST
Astronomical Twilight 4:59 AM EST 6:08 PM EST
Moon 4:59 PM EST 6:22 AM EST
Length of Visible Light 10h 57m
Length of Day
9h 58m
Full, 100% of the Moon is Illuminated
Nov 12
Full
Nov 19
Last Quarter
Nov 26
New
Dec 4
First Quarter
Dec 12
Full

Hourly Weather History & Observations

Time (EST) Temp. Windchill Dew Point Humidity Pressure Visibility Wind Dir Wind Speed Gust Speed Precip Events Conditions
12:15 AM 53.6 °F - 53.6 °F 100% 29.82 in 2.0 mi SE 3.5 mph - N/A   Mostly Cloudy
12:35 AM 53.6 °F - 53.6 °F 100% 29.82 in 3.0 mi SSE 3.5 mph - N/A   Overcast
12:55 AM 53.6 °F - 53.6 °F 100% 29.81 in 6.0 mi SSE 5.8 mph - N/A   Overcast
1:15 AM 53.6 °F - 53.6 °F 100% 29.79 in 6.0 mi South 6.9 mph - N/A   Mostly Cloudy
1:35 AM 53.6 °F - 53.6 °F 100% 29.78 in 9.0 mi South 6.9 mph - N/A   Clear
1:55 AM 53.6 °F - 53.6 °F 100% 29.77 in 10.0 mi South 8.1 mph - N/A   Clear
2:15 AM 55.4 °F - 53.6 °F 94% 29.75 in 10.0 mi South 6.9 mph - N/A   Clear
2:35 AM 55.4 °F - 51.8 °F 88% 29.74 in 10.0 mi SSW 6.9 mph 12.7 mph N/A   Clear
2:55 AM 55.4 °F - 51.8 °F 88% 29.73 in 10.0 mi Variable 6.9 mph - N/A   Clear
3:15 AM 55.4 °F - 51.8 °F 88% 29.73 in 10.0 mi SSW 6.9 mph 15.0 mph N/A   Clear
3:35 AM 55.4 °F - 50.0 °F 82% 29.72 in 10.0 mi SSW 8.1 mph - N/A   Clear
3:55 AM 55.4 °F - 50.0 °F 82% 29.71 in 10.0 mi SSW 8.1 mph - N/A   Clear
4:15 AM 57.2 °F - 50.0 °F 77% 29.71 in 10.0 mi Variable 6.9 mph 15.0 mph N/A   Clear
4:35 AM 55.4 °F - 50.0 °F 82% 29.72 in 10.0 mi Variable 5.8 mph 12.7 mph N/A   Clear
4:55 AM 55.4 °F - 50.0 °F 82% 29.69 in 10.0 mi SSW 5.8 mph 15.0 mph N/A   Clear
5:15 AM 55.4 °F - 50.0 °F 82% 29.67 in 10.0 mi SSE 5.8 mph - N/A   Clear
5:55 AM 57.2 °F - 48.2 °F 72% 29.69 in 10.0 mi SW 10.4 mph 17.3 mph N/A   Clear
6:35 AM 57.2 °F - 48.2 °F 72% 29.69 in 10.0 mi SSW 9.2 mph 17.3 mph N/A   Clear
6:55 AM 55.4 °F - 48.2 °F 77% 29.68 in 10.0 mi Variable 6.9 mph - N/A   Clear
7:15 AM 55.4 °F - 48.2 °F 77% 29.69 in 10.0 mi SW 9.2 mph 16.1 mph N/A   Clear
7:35 AM 57.2 °F - 48.2 °F 72% 29.69 in 10.0 mi WSW 6.9 mph 17.3 mph N/A   Clear
7:55 AM 57.2 °F - 46.4 °F 67% 29.69 in 10.0 mi Variable 6.9 mph 12.7 mph N/A   Partly Cloudy
8:15 AM 55.4 °F - 46.4 °F 72% 29.68 in 10.0 mi WSW 9.2 mph - N/A Rain Light Rain
8:55 AM 55.4 °F - 46.4 °F 72% 29.70 in 10.0 mi West 10.4 mph - N/A Rain Light Rain
9:15 AM 53.6 °F - 48.2 °F 82% 29.71 in 7.0 mi WNW 11.5 mph 23.0 mph N/A Rain Light Rain
9:35 AM 48.2 °F - 44.6 °F 87% 29.73 in 6.0 mi WNW 9.2 mph 21.9 mph N/A Rain Light Rain
9:55 AM 46.4 °F 42.4 °F 44.6 °F 93% 29.74 in 4.0 mi WNW 8.1 mph - N/A Rain Light Rain
10:15 AM 46.4 °F 40.7 °F 42.8 °F 87% 29.74 in 3.0 mi NNW 12.7 mph - N/A Rain Light Rain
10:35 AM 41.0 °F 35.2 °F 39.2 °F 93% 29.75 in 5.0 mi NNW 9.2 mph 16.1 mph N/A Rain Light Rain
10:55 AM 39.2 °F 32.5 °F 37.4 °F 93% 29.75 in 5.0 mi NNW 10.4 mph 19.6 mph N/A Rain Light Rain
11:15 AM 37.4 °F 28.9 °F 35.6 °F 93% 29.77 in 6.0 mi NNW 13.8 mph 20.7 mph N/A Rain Light Rain
11:55 AM 37.4 °F 30.3 °F 33.8 °F 87% 29.79 in 8.0 mi NW 10.4 mph 17.3 mph N/A Rain Light Rain
12:35 PM 35.6 °F 26.6 °F 32.0 °F 87% 29.81 in 5.0 mi NW 13.8 mph - N/A Snow Light Snow
12:55 PM 33.8 °F 23.9 °F 28.4 °F 81% 29.81 in 9.0 mi NW 15.0 mph 26.5 mph N/A   Partly Cloudy
1:15 PM 33.8 °F 25.3 °F 28.4 °F 81% 29.82 in 1.8 mi NW 11.5 mph 23.0 mph N/A Snow Light Snow
1:35 PM 32.0 °F 23.0 °F 26.6 °F 80% 29.83 in 2.0 mi NNW 11.5 mph 23.0 mph N/A Snow Light Snow
1:55 PM 32.0 °F 24.2 °F 24.8 °F 75% 29.84 in 4.0 mi NNW 9.2 mph 23.0 mph N/A   Mostly Cloudy
2:15 PM 32.0 °F 21.6 °F 21.2 °F 64% 29.85 in 7.0 mi NNW 15.0 mph 27.6 mph N/A   Scattered Clouds
2:35 PM 32.0 °F 23.6 °F 21.2 °F 64% 29.85 in 10.0 mi NNW 10.4 mph 24.2 mph N/A   Clear
2:55 PM 32.0 °F 23.0 °F 19.4 °F 60% 29.86 in 10.0 mi NW 11.5 mph 21.9 mph N/A   Partly Cloudy
3:15 PM 30.2 °F 18.9 °F 17.6 °F 60% 29.87 in 10.0 mi NNW 16.1 mph 29.9 mph N/A   Partly Cloudy
3:35 PM 30.2 °F 20.2 °F 17.6 °F 60% 29.88 in 10.0 mi NW 12.7 mph 28.8 mph N/A   Clear
3:55 PM 30.2 °F 20.8 °F 17.6 °F 60% 29.89 in 10.0 mi NW 11.5 mph 25.3 mph N/A   Clear
4:15 PM 30.2 °F 17.1 °F 14.0 °F 51% 29.89 in 10.0 mi NNW 21.9 mph 29.9 mph N/A   Clear
4:35 PM 30.2 °F 18.5 °F 14.0 °F 51% 29.90 in 10.0 mi NNW 17.3 mph 28.8 mph N/A   Clear
4:55 PM 30.2 °F 20.2 °F 15.8 °F 55% 29.92 in 10.0 mi NNW 12.7 mph 19.6 mph N/A   Partly Cloudy
5:15 PM 30.2 °F 20.2 °F 14.0 °F 51% 29.94 in 10.0 mi NNW 12.7 mph 25.3 mph N/A   Partly Cloudy
5:35 PM 28.4 °F 17.0 °F 14.0 °F 55% 29.94 in 10.0 mi NNW 15.0 mph 27.6 mph N/A   Partly Cloudy
5:55 PM 28.4 °F 15.8 °F 14.0 °F 55% 29.96 in 10.0 mi NNW 18.4 mph 26.5 mph N/A   Clear
6:15 PM 28.4 °F 19.1 °F 12.2 °F 51% 29.97 in 10.0 mi NNW 10.4 mph 21.9 mph N/A   Clear
6:35 PM 28.4 °F 18.0 °F 12.2 °F 51% 29.98 in 10.0 mi NW 12.7 mph 21.9 mph N/A   Clear
6:55 PM 28.4 °F 18.0 °F 12.2 °F 51% 29.98 in 10.0 mi NW 12.7 mph 21.9 mph N/A   Clear
7:15 PM 28.4 °F 18.5 °F 10.4 °F 47% 29.99 in 10.0 mi NW 11.5 mph 21.9 mph N/A   Clear
7:35 PM 28.4 °F 15.1 °F 5.0 °F 37% 30.01 in 10.0 mi NNW 20.7 mph 32.2 mph N/A   Clear
7:55 PM 26.6 °F 13.1 °F 3.2 °F 37% 30.01 in 10.0 mi NW 19.6 mph 28.8 mph N/A   Clear
8:15 PM 26.6 °F 14.7 °F 1.4 °F 34% 30.02 in 10.0 mi NNW 15.0 mph 28.8 mph N/A   Clear
8:55 PM 24.8 °F 10.7 °F 3.2 °F 40% 30.05 in 10.0 mi NNW 19.6 mph 33.4 mph N/A   Clear
9:15 PM 24.8 °F 10.7 °F 3.2 °F 40% 30.05 in 10.0 mi NNW 19.6 mph 33.4 mph N/A   Clear
9:35 PM 24.8 °F 13.4 °F 5.0 °F 43% 30.05 in 10.0 mi NNW 12.7 mph 20.7 mph N/A   Clear
9:55 PM 23.0 °F 11.1 °F 5.0 °F 46% 30.05 in 10.0 mi NW 12.7 mph 24.2 mph N/A   Clear
10:15 PM 23.0 °F 13.9 °F 5.0 °F 46% 30.06 in 10.0 mi NW 8.1 mph 18.4 mph N/A   Clear
10:35 PM 23.0 °F 10.6 °F 3.2 °F 43% 30.06 in 10.0 mi NW 13.8 mph 20.7 mph N/A   Clear
10:55 PM 23.0 °F 11.1 °F 5.0 °F 46% 30.06 in 10.0 mi NW 12.7 mph 19.6 mph N/A   Clear
11:15 PM 23.0 °F 11.7 °F 5.0 °F 46% 30.07 in 10.0 mi NW 11.5 mph 20.7 mph N/A   Clear
11:35 PM 23.0 °F 12.4 °F 5.0 °F 46% 30.07 in 10.0 mi NW 10.4 mph 18.4 mph N/A   Clear
11:55 PM 23.0 °F 11.1 °F 5.0 °F 46% 30.07 in 10.0 mi NW 12.7 mph 23.0 mph N/A   Clear